Location: Gleizolles
(44.4833°N, 6.7667°E)
Time: 00:15:55
(UTC+00:00)

S-56A Canister/Altair - Pass Details

Date: 25 June 2024
Orbit: 638 x 2488 km, 38.9° (Epoch: 24 July)

Event Time Altitude Azimuth Distance (km) Brightness Sun altitude
Rises 19:39:51 0° 235° (SW) 3,812 11.3 -3.4°
Reaches altitude 10° 19:42:14 10° 230° (SW) 3,059 10.8 -3.8°
Maximum altitude 19:49:39 50° 157° (SSE) 1,871 9.2 -4.8°
Drops below altitude 10° 20:00:41 10° 87° (E) 4,490 11.0 -6.3°
Sets 20:04:56 0° 83° (E) 5,730 11.6 -6.8°
